Owensboro, KY

2:56 PM CST on February 20, 2017 (GMT -0600)
Owensboro-Daviess County

Weather History for KOWB - June, 2013

Change the Weather History Date:

Monday, June 24, 2013

  Actual Average Record
Temperature  
Mean Temperature 74 °F -  
Max Temperature 79 °F 87 °F 99 °F (1988)
Min Temperature 68 °F 64 °F 48 °F (1972)
Cooling Degree Days 8    
Growing Degree Days 24 (Base 50)    
Moisture  
Dew Point 72 °F    
Average Humidity 96    
Maximum Humidity 100    
Minimum Humidity 74    
Precipitation  
Precipitation 1.14 in - - ()
Sea Level Pressure  
Sea Level Pressure 30.12 in    
Wind  
Wind Speed 5 mph (SSW)    
Max Wind Speed 12 mph    
Max Gust Speed -    
Visibility 5 miles    
Events Fog , Rain , Thunderstorm    
Averages and records for this station are not official NWS values.
T = Trace of Precipitation, MM = Missing Value Source: NWS Daily Summary

Daily Weather History Graph

Daily Weather History Graph

Search for Another Location

Airport or City:

Trip Planner

Search our weather history database for the weather conditions in past years. The results will help you decide how hot, cold, wet, or windy it might be!

Date:

Astronomy

Jun. 24, 2013 Rise Set
Actual Time 5:27 AM CDT 8:14 PM CDT
Civil Twilight 4:56 AM CDT 8:45 PM CDT
Nautical Twilight 4:17 AM CDT 9:24 PM CDT
Astronomical Twilight 3:32 AM CDT 10:09 PM CDT
Moon 9:18 PM CDT (6/24) 6:53 AM CDT (6/24)
Length of Visible Light 15h 49m
Length of Day
14h 46m
Full, 98% of the Moon is Illuminated
Jun 24
Full
Jun 29
Last Quarter
Jul 8
New
Jul 15
First Quarter
Jul 22
Full

Hourly Weather History & Observations

Time (CDT) Temp. Dew Point Humidity Pressure Visibility Wind Dir Wind Speed Gust Speed Precip Events Conditions
12:56 AM 75.9 °F 72.0 °F 87% 30.07 in 10.0 mi SSE 4.6 mph - N/A   Clear
1:56 AM 74.8 °F 72.0 °F 91% 30.08 in 10.0 mi Calm Calm - 0.00 in   Clear
2:56 AM 75.9 °F 72.0 °F 87% 30.08 in 10.0 mi Calm Calm - 0.00 in   Clear
3:56 AM 74.8 °F 72.9 °F 94% 30.08 in 10.0 mi NW 9.2 mph - N/A   Partly Cloudy
4:56 AM 73.9 °F 70.9 °F 90% 30.06 in 10.0 mi Calm Calm - N/A   Clear
5:56 AM 73.9 °F 70.9 °F 90% 30.11 in 7.0 mi NNW 5.8 mph - 0.00 in Rain Light Rain
6:06 AM 73.4 °F 71.6 °F 94% 30.14 in 0.5 mi SW 8.1 mph - 0.06 in Fog , Rain Rain
6:16 AM 71.6 °F 71.6 °F 100% 30.13 in 1.0 mi Calm Calm - 0.23 in Rain , Thunderstorm Rain
6:17 AM 71.6 °F 71.6 °F 100% 30.13 in 1.0 mi Calm Calm - 0.23 in Rain , Thunderstorm Thunderstorms and Rain
6:22 AM 73.4 °F 71.6 °F 94% 30.13 in 2.0 mi NW 4.6 mph - 0.24 in Rain Light Rain
6:40 AM 73.4 °F 73.4 °F 100% 30.13 in 3.0 mi NW 4.6 mph - 0.25 in Rain Light Rain
6:56 AM 72.9 °F 72.9 °F 100% 30.11 in 4.0 mi NNE 4.6 mph - 0.25 in Rain Light Rain
7:10 AM 73.4 °F 73.4 °F 100% 30.14 in 3.0 mi NNW 5.8 mph - 0.00 in Rain Light Rain
7:33 AM 73.4 °F 71.6 °F 94% 30.15 in 2.5 mi NW 8.1 mph - 0.03 in Rain Rain
7:56 AM 72.9 °F 72.0 °F 97% 30.14 in 3.0 mi North 5.8 mph - 0.06 in Rain Light Rain
8:24 AM 71.6 °F 71.6 °F 100% 30.16 in 3.0 mi North 3.5 mph - 0.03 in Rain , Thunderstorm Thunderstorms and Rain
8:30 AM 71.6 °F 71.6 °F 100% 30.18 in 0.8 mi West 6.9 mph - 0.11 in Rain , Thunderstorm Thunderstorms and Rain
8:39 AM 71.6 °F 71.6 °F 100% 30.18 in 0.8 mi South 4.6 mph - 0.29 in Rain , Thunderstorm Thunderstorms and Rain
8:40 AM 71.6 °F 71.6 °F 100% 30.18 in 1.0 mi SSE 4.6 mph - 0.29 in Rain , Thunderstorm Light Thunderstorms and Rain
8:56 AM 70.9 °F 70.9 °F 100% 30.16 in 2.5 mi Variable 4.6 mph - 0.35 in Rain Light Rain
9:07 AM 71.6 °F 71.6 °F 100% 30.18 in 2.0 mi Calm Calm - 0.04 in Rain , Thunderstorm Light Thunderstorms and Rain
9:09 AM 71.6 °F 71.6 °F 100% 30.18 in 2.0 mi Calm Calm - 0.04 in Rain , Thunderstorm Light Thunderstorms and Rain
9:56 AM 70.9 °F 70.9 °F 100% 30.16 in 2.0 mi South 8.1 mph - 0.16 in Rain , Thunderstorm Rain
10:03 AM 71.6 °F 71.6 °F 100% 30.17 in 1.8 mi South 6.9 mph - 0.02 in Rain , Thunderstorm Thunderstorms and Rain
10:08 AM 71.6 °F 71.6 °F 100% 30.16 in 2.0 mi South 9.2 mph - 0.03 in Rain , Thunderstorm Thunderstorms and Rain
10:20 AM 71.6 °F 71.6 °F 100% 30.17 in 3.0 mi South 8.1 mph - 0.04 in Rain Light Rain
10:22 AM 71.6 °F 71.6 °F 100% 30.17 in 3.0 mi SSW 8.1 mph - 0.04 in Rain , Thunderstorm Light Thunderstorms and Rain
10:56 AM 72.9 °F 72.9 °F 100% 30.16 in 4.0 mi SSW 8.1 mph - 0.06 in Rain , Thunderstorm Light Thunderstorms and Rain
11:05 AM 73.4 °F 73.4 °F 100% 30.18 in 3.0 mi SW 10.4 mph - 0.01 in Rain , Thunderstorm Light Thunderstorms and Rain
11:39 AM 71.6 °F 71.6 °F 100% 30.18 in 3.0 mi SW 11.5 mph - 0.07 in Rain , Thunderstorm Thunderstorms and Rain
11:56 AM 70.9 °F 70.9 °F 100% 30.16 in 3.0 mi WSW 10.4 mph - 0.10 in Rain , Thunderstorm Thunderstorms and Rain
12:56 PM 70.0 °F 70.0 °F 100% 30.15 in 4.0 mi WSW 10.4 mph - 0.09 in Rain , Thunderstorm Thunderstorms and Rain
1:56 PM 68.9 °F 68.9 °F 100% 30.14 in 7.0 mi West 8.1 mph - 0.05 in Rain , Thunderstorm Light Thunderstorms and Rain
2:10 PM 69.8 °F 69.8 °F 100% 30.14 in 7.0 mi West 9.2 mph - 0.01 in Rain Light Rain
2:56 PM 70.0 °F 70.0 °F 100% 30.10 in 10.0 mi WSW 4.6 mph - 0.02 in Rain Light Rain
3:56 PM 74.8 °F 70.0 °F 85% 30.08 in 10.0 mi Calm Calm - 0.00 in   Partly Cloudy
4:56 PM 79.0 °F 70.9 °F 76% 30.06 in 10.0 mi South 6.9 mph - N/A   Clear
5:56 PM 79.0 °F 72.0 °F 79% 30.06 in 10.0 mi South 5.8 mph - N/A   Clear
6:56 PM 79.9 °F 70.9 °F 74% 30.06 in 10.0 mi ESE 5.8 mph - N/A   Clear
7:56 PM 77.0 °F 72.9 °F 87% 30.06 in 10.0 mi SSE 5.8 mph - N/A   Clear
8:56 PM 73.9 °F 72.9 °F 96% 30.05 in 10.0 mi SE 6.9 mph - N/A   Clear
9:56 PM 72.9 °F 72.0 °F 97% 30.05 in 10.0 mi South 5.8 mph - N/A   Clear
10:56 PM 72.9 °F 72.0 °F 97% 30.06 in 10.0 mi SSE 6.9 mph - N/A   Clear
11:56 PM 72.9 °F 70.9 °F 93% 30.06 in 10.0 mi SSE 4.6 mph - N/A   Clear